DWI1739 SKRG-MDSD

Flight info

Callsign DWI1739
Flight time N/A
Altitude 39000
Route BIVIG1B BIVIG DCT DIMOL DCT SASNU DCT ELB DCT UGOSA DCT VUP DCT IRONU DCT EKISI DCT RHC DCT SENSO DCT LETEX DCT DELPO DELPO4H
Aircraft B38M/M-SDE1FGHILORVWXY/HB1

Departure

Time 2026-04-25 02:17
Airport Jose Maria Córdova International Airport (SKRG)

Arrival

Time N/A
Airport Las Américas International Airport (MDSD)
Time Latitude Longitude Altitude Speed Heading
2026-04-25 02:15 6.14862 -75.42414 6977 ft 0 kts 89°
2026-04-25 02:16 6.14863 -75.42405 6977 ft 8 kts 85°
2026-04-25 02:16 6.14902 -75.42339 6978 ft 13 kts 36°
2026-04-25 02:16 6.14998 -75.42304 6981 ft 22 kts
2026-04-25 02:16 6.15395 -75.42303 6980 ft 94 kts 359°
2026-04-25 02:17 6.16281 -75.42311 6982 ft 159 kts 360°
2026-04-25 02:17 6.17526 -75.42327 7400 ft 182 kts 357°
2026-04-25 02:17 6.18835 -75.42364 8238 ft 192 kts
2026-04-25 02:17 6.20163 -75.42347 9177 ft 194 kts 359°
2026-04-25 02:18 6.21555 -75.42083 9734 ft 216 kts 25°
2026-04-25 02:18 6.22756 -75.41078 10299 ft 238 kts 55°
2026-04-25 02:18 6.23355 -75.39477 10778 ft 257 kts 84°
2026-04-25 02:18 6.23484 -75.37621 11162 ft 276 kts 80°
2026-04-25 02:19 6.24064 -75.35734 11857 ft 283 kts 68°
2026-04-25 02:19 6.24818 -75.33916 12781 ft 285 kts 66°
2026-04-25 02:19 6.25638 -75.32072 13554 ft 292 kts 65°
2026-04-25 02:19 6.26593 -75.30241 14256 ft 304 kts 51°
2026-04-25 02:20 6.28245 -75.28867 14709 ft 317 kts 26°
2026-04-25 02:20 6.30242 -75.27828 15093 ft 336 kts 27°
2026-04-25 02:20 6.32378 -75.26641 15407 ft 357 kts 28°
2026-04-25 02:20 6.34568 -75.25408 15697 ft 374 kts 28°
2026-04-25 02:21 6.36907 -75.24085 16104 ft 386 kts 28°
2026-04-25 02:21 6.39226 -75.22777 16781 ft 388 kts 28°
2026-04-25 02:21 6.41597 -75.21440 17390 ft 392 kts 28°
2026-04-25 02:21 6.43988 -75.20092 18028 ft 395 kts 28°
2026-04-25 02:22 6.46399 -75.18734 18588 ft 399 kts 28°
2026-04-25 02:22 6.48818 -75.17371 19123 ft 402 kts 28°
2026-04-25 02:22 6.51277 -75.15985 19663 ft 405 kts 28°
2026-04-25 02:22 6.53743 -75.14594 20190 ft 407 kts 28°
2026-04-25 02:23 6.56224 -75.13195 20708 ft 410 kts 28°
2026-04-25 02:23 6.58730 -75.11782 21208 ft 413 kts 28°
2026-04-25 02:23 6.61244 -75.10364 21689 ft 416 kts 28°
2026-04-25 02:23 6.63780 -75.08934 22172 ft 419 kts 28°
2026-04-25 02:24 6.66331 -75.07495 22637 ft 422 kts 28°
2026-04-25 02:24 6.68887 -75.06053 23089 ft 425 kts 28°
2026-04-25 02:24 6.71488 -75.04586 23536 ft 428 kts 28°
2026-04-25 02:24 6.74098 -75.03113 23925 ft 431 kts 28°
2026-04-25 02:25 6.76723 -75.01631 24276 ft 434 kts 28°
2026-04-25 02:25 6.79333 -75.00158 24619 ft 437 kts 28°
2026-04-25 02:25 6.81997 -74.98654 24972 ft 440 kts 28°
2026-04-25 02:25 6.84673 -74.97144 25329 ft 443 kts 29°
2026-04-25 02:26 6.87369 -74.95622 25666 ft 446 kts 29°
2026-04-25 02:26 6.90091 -74.94085 26014 ft 449 kts 29°
2026-04-25 02:26 6.92813 -74.92547 26359 ft 452 kts 29°
2026-04-25 02:26 6.95565 -74.90993 26706 ft 455 kts 29°
2026-04-25 02:27 6.98336 -74.89428 27060 ft 457 kts 30°
2026-04-25 02:27 7.01119 -74.87855 27389 ft 460 kts 30°
2026-04-25 02:27 7.03924 -74.86270 27726 ft 463 kts 30°
2026-04-25 02:27 7.06736 -74.84681 28057 ft 466 kts 30°
2026-04-25 02:28 7.09570 -74.83080 28393 ft 468 kts 30°
2026-04-25 02:28 7.12422 -74.81467 28707 ft 471 kts 30°
2026-04-25 02:28 7.15290 -74.79846 29031 ft 474 kts 30°
2026-04-25 02:28 7.18182 -74.78211 29348 ft 477 kts 30°
2026-04-25 02:29 7.21077 -74.76574 29658 ft 480 kts 30°
2026-04-25 02:29 7.24005 -74.74918 29973 ft 483 kts 31°
2026-04-25 02:29 7.27042 -74.73466 30224 ft 487 kts 21°
2026-04-25 02:29 7.30170 -74.72265 30491 ft 489 kts 23°
2026-04-25 02:30 7.33359 -74.70958 30720 ft 492 kts 24°
2026-04-25 02:30 7.36516 -74.69641 30975 ft 494 kts 24°
2026-04-25 02:30 7.39713 -74.68295 31234 ft 496 kts 24°
2026-04-25 02:30 7.42868 -74.66963 31551 ft 497 kts 24°
2026-04-25 02:31 7.46059 -74.65615 31888 ft 497 kts 24°
2026-04-25 02:31 7.49250 -74.64267 32237 ft 497 kts 24°
2026-04-25 02:31 7.52485 -74.62901 32594 ft 497 kts 24°
2026-04-25 02:31 7.55634 -74.61570 32945 ft 497 kts 24°
2026-04-25 02:32 7.58823 -74.60222 33307 ft 497 kts 24°
2026-04-25 02:32 7.62017 -74.58872 33677 ft 498 kts 24°
2026-04-25 02:32 7.65213 -74.57521 34019 ft 498 kts 24°
2026-04-25 02:32 7.68400 -74.56174 34333 ft 497 kts 24°
2026-04-25 02:33 7.71600 -74.54820 34662 ft 497 kts 24°
2026-04-25 02:33 7.74792 -74.53469 35019 ft 495 kts 24°
2026-04-25 02:33 7.77961 -74.52129 35365 ft 495 kts 24°
2026-04-25 02:33 7.81141 -74.50784 35694 ft 494 kts 24°
2026-04-25 02:34 7.84244 -74.49470 36019 ft 493 kts 24°
2026-04-25 02:34 7.87430 -74.48122 36341 ft 493 kts 24°
2026-04-25 02:34 7.90597 -74.46782 36673 ft 492 kts 24°
2026-04-25 02:34 7.93740 -74.45451 36980 ft 491 kts 24°
2026-04-25 02:35 7.96908 -74.44109 37293 ft 491 kts 24°
2026-04-25 02:35 8.00050 -74.42778 37582 ft 490 kts 24°
2026-04-25 02:35 8.03190 -74.41448 37884 ft 489 kts 24°
2026-04-25 02:35 8.06330 -74.40118 38190 ft 489 kts 24°
2026-04-25 02:36 8.09411 -74.38812 38469 ft 488 kts 24°
2026-04-25 02:36 8.12584 -74.37468 38725 ft 487 kts 24°
2026-04-25 02:36 8.15690 -74.36151 38936 ft 487 kts 24°
2026-04-25 02:37 8.21937 -74.33502 38974 ft 485 kts 24°
2026-04-25 02:37 8.28176 -74.30856 38976 ft 485 kts 24°
2026-04-25 02:38 8.34372 -74.28226 38978 ft 486 kts 24°
2026-04-25 02:38 8.40622 -74.25574 38965 ft 486 kts 24°
2026-04-25 02:39 8.46859 -74.22925 38966 ft 487 kts 24°
2026-04-25 02:39 8.53109 -74.20270 38949 ft 491 kts 24°
2026-04-25 02:40 8.59411 -74.17593 38956 ft 491 kts 24°
2026-04-25 02:40 8.65721 -74.14912 38954 ft 491 kts 24°
2026-04-25 02:41 8.72026 -74.12230 38948 ft 492 kts 24°
2026-04-25 02:41 8.77286 -74.09993 38951 ft 492 kts 24°
2026-04-25 02:42 8.83599 -74.07306 38946 ft 492 kts 24°
2026-04-25 02:42 8.89908 -74.04621 38942 ft 492 kts 24°
2026-04-25 02:43 8.96215 -74.01936 38946 ft 492 kts 24°
2026-04-25 02:43 9.02563 -73.99304 38950 ft 492 kts 23°
2026-04-25 02:44 9.08910 -73.96666 38947 ft 493 kts 23°
2026-04-25 02:44 9.15229 -73.94039 38946 ft 493 kts 23°
2026-04-25 02:45 9.21566 -73.91403 38949 ft 493 kts 23°
2026-04-25 02:45 9.27907 -73.88765 38946 ft 493 kts 23°
2026-04-25 02:46 9.34263 -73.86119 38950 ft 493 kts 23°
2026-04-25 02:46 9.40603 -73.83479 38949 ft 492 kts 23°
2026-04-25 02:47 9.46941 -73.80838 38952 ft 492 kts 23°
2026-04-25 02:47 9.53274 -73.78199 38950 ft 492 kts 23°
2026-04-25 02:48 9.59598 -73.75562 38950 ft 492 kts 23°
2026-04-25 02:48 9.65892 -73.72937 38950 ft 491 kts 23°
2026-04-25 02:49 9.72229 -73.70292 38950 ft 491 kts 23°
2026-04-25 02:49 9.78550 -73.67654 38953 ft 492 kts 23°
2026-04-25 02:50 9.84891 -73.65006 38954 ft 492 kts 23°
2026-04-25 02:50 9.91176 -73.62380 38959 ft 492 kts 22°
2026-04-25 02:51 9.97507 -73.59733 38959 ft 492 kts 22°
2026-04-25 02:51 10.03863 -73.57076 38965 ft 492 kts 22°
2026-04-25 02:52 10.10176 -73.54435 38972 ft 492 kts 22°
2026-04-25 02:52 10.16507 -73.51786 38982 ft 492 kts 22°
2026-04-25 02:53 10.22820 -73.49143 38990 ft 492 kts 22°
2026-04-25 02:53 10.29158 -73.46488 38991 ft 493 kts 22°
2026-04-25 02:54 10.35511 -73.43826 39000 ft 493 kts 22°
2026-04-25 02:54 10.41850 -73.41168 39002 ft 494 kts 22°
2026-04-25 02:55 10.48204 -73.38503 39003 ft 494 kts 22°
2026-04-25 02:55 10.54567 -73.35833 38997 ft 494 kts 22°
2026-04-25 02:56 10.60919 -73.33167 39006 ft 494 kts 22°
2026-04-25 02:56 10.67273 -73.30497 39024 ft 494 kts 21°
2026-04-25 02:57 10.73629 -73.27828 39029 ft 494 kts 21°
2026-04-25 02:57 10.79988 -73.25155 39037 ft 494 kts 21°
2026-04-25 02:58 10.86351 -73.22478 39033 ft 495 kts 21°
2026-04-25 02:58 10.92673 -73.19818 39020 ft 494 kts 21°
2026-04-25 02:59 10.99034 -73.17141 39008 ft 494 kts 21°
2026-04-25 02:59 11.05394 -73.14463 39000 ft 494 kts 21°
2026-04-25 03:00 11.11751 -73.11784 38993 ft 495 kts 21°
2026-04-25 03:00 11.18116 -73.09101 38974 ft 494 kts 21°
2026-04-25 03:01 11.24471 -73.06421 38956 ft 495 kts 21°
2026-04-25 03:01 11.30836 -73.03735 38945 ft 495 kts 21°
2026-04-25 03:02 11.37189 -73.01053 38933 ft 495 kts 21°
2026-04-25 03:02 11.43548 -72.98368 38918 ft 494 kts 21°
2026-04-25 03:03 11.49911 -72.95679 38914 ft 495 kts 20°
2026-04-25 03:03 11.54124 -72.93898 38913 ft 495 kts 20°